This demonstration page uses our WeatherBlox Daily Observations layout. Learn more.

Left ArrowRight Arrow

Hourly Observations for March 3, 2020

Temp ( °F °C ) Dew Point ( °F °C ) Humidity (%) Winds ( mph kmh ) Pressure ( in mb ) Visibility ( mi km ) Precip ( " mm )
12:06 am 00:06 Cloudy with Mist and Fog 51 10.6 50 10 96 96 ENE 5 7 29.71 1006 3 4.82802 0.001 0.001
12:18 am 00:18 Cloudy with Mist and Fog 52 11.1 51 10.6 97 97 E 3 6 29.71 1006 4 6.43736 0.001 0.001
12:21 am 00:21 Cloudy with Mist and Fog 51 10.6 50 10 96 96 E 3 6 29.71 1006 4 6.43736 0.001 0.001
12:28 am 00:28 Cloudy with Mist and Fog 51 10.6 51 10.6 100 100 N N/A 29.71 1006 3 4.82802 0.001 0.001
12:53 am 00:53 Cloudy with Mist and Fog 51 10.6 50 10 96 96 N N/A 29.68 1005 3 4.82802 0.001 0.001
1:35 am 01:35 Cloudy with Nearby Thunderstorms 51 10.6 50 10 96 96 SE 3 6 29.66 1004 4 6.43736 0.001 0.001
1:53 am 01:53 Cloudy 52 11.1 51 10.6 97 97 VRB 3 6 29.64 1004 8 12.87472 0.001 0.001
2:53 am 02:53 Cloudy 52 11.1 51 10.6 97 97 N N/A 29.62 1003 7 11.26538 N/A
3:18 am 03:18 Cloudy with Thunderstorms 53 11.7 51 10.6 93 93 SW 5 7 29.62 1003 2.5 4.02335 0.05 1.27
3:33 am 03:33 Cloudy with Heavy Rain 53 11.7 52 11.1 96 96 W 3 6 29.63 1004 1.75 2.816345 0.13 3.302
3:53 am 03:53 Cloudy with Heavy Rain 53 11.7 52 11.1 96 96 NW 6 9 29.61 1003 2.5 4.02335 0.26 6.604
3:58 am 03:58 Cloudy with Heavy Rain 53 11.7 51 10.6 93 93 NNE 7 11 29.61 1003 3 4.82802 0.02 0.508
4:09 am 04:09 Cloudy with Light Rain 52 11.1 49 9.4 89 89 NNW 10 17 29.62 1003 7 11.26538 0.03 0.762
4:45 am 04:45 Cloudy 50 10 49 9.4 96 96 E 3 6 29.61 1003 10 16.0934 0.04 1.016
4:53 am 04:53 Cloudy 50 10 48 8.9 93 93 E 3 6 29.6 1002 10 16.0934 0.04 1.016
5:28 am 05:28 Cloudy 50 10 49 9.4 96 96 S 3 6 29.63 1003 10 16.0934 N/A
5:53 am 05:53 Cloudy 51 10.6 49 9.4 92 92 N N/A 29.61 1003 10 16.0934 N/A
6:51 am 06:51 Cloudy 50 10 48 9 94 94 N N/A 29.59 1002 10 16.0934 N/A
6:53 am 06:53 Cloudy 50 10 48 8.9 93 93 N N/A 29.59 1002 10 16.0934 N/A
7:03 am 07:03 Mostly Cloudy 50 10 48 8.9 93 93 N N/A 29.6 1002 10 16.0934 N/A
7:14 am 07:14 Cloudy 48 8.9 47 8.3 96 96 N N/A 29.61 1003 9 14.48406 N/A
7:23 am 07:23 Cloudy 48 8.9 47 8.3 96 96 N N/A 29.61 1003 8 12.87472 N/A
7:53 am 07:53 Cloudy with Mist and Fog 50 10 49 9.4 96 96 SW 5 7 29.61 1003 6 9.65604 N/A
8:53 am 08:53 Cloudy 53 11.7 50 10 89 89 SW 9 15 29.61 1003 10 16.0934 N/A
9:02 am 09:02 Cloudy with Light Rain 53 11.7 50 10 89 89 SW 9 15 29.61 1003 6 9.65604 0.001 0.001
9:51 am 09:51 Cloudy 52 11 50 10 94 94 SW 7 11 29.61 1003 9 14.48406 0.001 0.001
9:53 am 09:53 Cloudy 52 11.1 50 10 93 93 SSW 7 11 29.6 1002 9 14.48406 0.001 0.001
10:01 am 10:01 Cloudy with Mist and Fog 52 11.1 50 10 93 93 SW 8 13 29.61 1003 6 9.65604 N/A
10:53 am 10:53 Cloudy with Light Rain 49 9.4 47 8.3 93 93 WNW 9 15 29.62 1003 3 4.82802 0.01 0.254
11:33 am 11:33 Cloudy 48 8.9 44 6.7 86 86 WNW 10 17 29.65 1004 10 16.0934 0.001 0.001
11:53 am 11:53 Cloudy 49 9.4 44 6.7 83 83 W 8 13 29.64 1004 10 16.0934 0.001 0.001
12:53 pm 12:53 Mostly Cloudy 53 11.7 41 5 64 64 WNW 20 31 29.66 1005 10 16.0934 N/A
1:53 pm 13:53 Sunny 55 12.8 38 3.3 53 53 W 17 28 29.63 1004 10 16.0934 N/A
2:53 pm 14:53 Sunny 58 14.4 38 3.3 48 48 W 18 30 29.63 1004 10 16.0934 N/A
3:53 pm 15:53 Partly Cloudy 57 13.9 35 1.7 44 44 W 17 28 29.65 1004 10 16.0934 N/A
4:53 pm 16:53 Mostly Cloudy 56 13.3 34 1.1 44 44 W 24 39 29.67 1005 10 16.0934 N/A
5:53 pm 17:53 Partly Cloudy 56 13.3 31 -0.6 39 39 W 18 30 29.72 1006 10 16.0934 N/A
6:53 pm 18:53 Clear 52 11.1 30 -1.1 43 43 W 14 22 29.77 1008 10 16.0934 N/A
7:53 pm 19:53 Clear 50 10 30 -1.1 46 46 W 10 17 29.82 1010 10 16.0934 N/A
8:53 pm 20:53 Clear 48 8.9 31 -0.6 52 52 W 7 11 29.84 1010 10 16.0934 N/A
9:53 pm 21:53 Clear 44 6.7 30 -1.1 58 58 W 6 9 29.87 1012 10 16.0934 N/A
10:53 pm 22:53 Clear 46 7.8 30 -1.1 54 54 W 8 13 29.91 1013 10 16.0934 N/A
11:53 pm 23:53 Clear 42 5.6 30 -1.1 62 62 W 5 7 29.93 1014 10 16.0934 N/A

Powered by AerisWeather